Regional Weather Roundup
Issued by NWS

Home | Current Version | Previous Version | Graphics & Text | Print | Product List | Glossary On
Versions: 1 2 3 4 5 6 7 8 9 10 11 12 13 14 15 16 17 18 19 20 21 22 23 24 25 26 27 28 29 30 31 32 33 34 35 36 37 38 39 40 41 42 43 44 45 46 47 48 49 50
202
ASUS43 KMKX 121810
RWRWI

WISCONSIN REGIONAL WEATHER ROUNDUP
NATIONAL WEATHER SERVICE MILWAUKEE/SULLIVAN WI
1200 PM CST FRI FEB 12 2016

NOTE: "FAIR" INDICATES FEW OR NO CLOUDS BELOW 12,000 FEET WITH NO
SIGNIFICANT WEATHER AND/OR OBSTRUCTIONS TO VISIBILITY.

WIZ001-002-006>008-014>016-023>028-121900-
NORTHWEST WISCONSIN

CITY           SKY/WX    TMP DP  RH WIND       PRES   REMARKS
SUPERIOR ARPT  SUNNY      2 -14  46 N17G23    30.44R WCI -18
6HR MIN TEMP:   0; 6HR MAX TEMP:   4;

ASHLAND        CLOUDY     3  -8  60 NW15G26   30.35R HAZE    WCI -16
6HR MIN TEMP:   2; 6HR MAX TEMP:   6; 6HR PCP: TRACE;

HAYWARD        SUNNY      3 -13  47 N15G26    30.32R WCI -16
6HR MIN TEMP:   1; 6HR MAX TEMP:   4; 6HR PCP: TRACE;

SIREN          SUNNY      5 -13  43 NW16      30.39R WCI -14
6HR MIN TEMP:   1; 6HR MAX TEMP:   6;

CUMBERLAND     MOSUNNY    5  -9  51 NW17      30.32R WCI -14
RICE LAKE      SUNNY      6 -10  47 W13G21    30.35R WCI -10
6HR MIN TEMP:   5; 6HR MAX TEMP:   7;

CHETEK         MOSUNNY    8  -8  48 MISG      30.33R
6HR MIN TEMP:   5; 6HR MAX TEMP:   8;

LADYSMITH      SUNNY      6  -8  54 NW21      30.29R WCI -15
6HR MIN TEMP:   4; 6HR MAX TEMP:   8;

EAU CLAIRE     MOSUNNY    9  -6  50 NW20G26   30.33R WCI -10
6HR MIN TEMP:   8; 6HR MAX TEMP:  12;

MENOMONIE      SUNNY     12  -6  44 NW14G24   30.35R WCI  -3
6HR MIN TEMP:   9; 6HR MAX TEMP:  13;

NEW RICHMOND   SUNNY      7  -8  49 NW18G25   30.39R WCI -12
6HR MIN TEMP:   6; 6HR MAX TEMP:   9;

OSCEOLA        SUNNY      8  -8  48 NW20G25   30.44R WCI -12
6HR MIN TEMP:   7; 6HR MAX TEMP:  10;

$$

WIZ003>005-009-010-017-018-121900-
NORTH CENTRAL WISCONSIN

CITY           SKY/WX    TMP DP  RH WIND       PRES   REMARKS
MANITOWISH WTR CLOUDY     1  -9  61 NW16G24   30.16R HAZE    WCI -18
6HR MIN TEMP:   1; 6HR MAX TEMP:   6;

ARBOR VITAE    PTSUNNY    4  -7  58 N18G30    30.15R HAZE    WCI -16
6HR MIN TEMP:   4; 6HR MAX TEMP:   9;

WOODRUFF       PTSUNNY    4  -7  58 N18G30    30.15R HAZE    WCI -16
6HR MIN TEMP:   4; 6HR MAX TEMP:   9;

RHINELANDER    LGT SNOW   4  -7  60 NW17G30   30.12R WCI -16
6HR MIN TEMP:   4; 6HR MAX TEMP:   7; 6HR PCP: TRACE;

EAGLE RIVER    HAZE       5  -6  61 NW21G30   30.10R VSB 1   WCI -16
LAND O LAKES   CLOUDY     4  -8  57 NW15G25   30.11R HAZE    WCI -15
6HR MIN TEMP:   3; 6HR MAX TEMP:   7;

PHILLIPS       CLOUDY     3  -9  56 NW16G23   30.21R WCI -16
6HR MIN TEMP:   1; 6HR MAX TEMP:   5;

TOMAHAWK       PTSUNNY    7  -8  50 NW15G24   30.16S WCI -11
6HR MIN TEMP:   4; 6HR MAX TEMP:   7;

MEDFORD        MOSUNNY    6  -6  57 NW21G28   30.18R HAZE    WCI -15
6HR MIN TEMP:   4; 6HR MAX TEMP:   8;

MERRILL        MOSUNNY    8  -8  47 NW17G24   30.17R WCI -11
$$

WIZ029-030-035-036-043>047-121900-
CENTRAL WISCONSIN

CITY           SKY/WX    TMP DP  RH WIND       PRES   REMARKS
WAUSAU         PTSUNNY   10  -6  48 NW14G28   30.16R WCI  -6
6HR MIN TEMP:   8; 6HR MAX TEMP:  12; 6HR PCP: TRACE;

MOSINEE        MOSUNNY    9  -4  56 NW21G31   30.18R WCI -11
MARSHFIELD     PTSUNNY    9  -6  50 NW23G30   30.19R WCI -11
6HR MIN TEMP:   8; 6HR MAX TEMP:  12; 6HR PCP: TRACE;

STEVENS POINT  CLOUDY     9  -7  48 NW16G23   30.18R WCI  -9
6HR MIN TEMP:   8; 6HR MAX TEMP:  11;

WAUPACA        MOSUNNY   17  -4  38 NW13G26   30.17R WCI   3
6HR MIN TEMP:  15; 6HR MAX TEMP:  17;

WAUTOMA        SUNNY     14  -6  40 NW21G28   30.19R WCI  -4
6HR MIN TEMP:  12; 6HR MAX TEMP:  15; 6HR PCP: TRACE;

WISC RAPIDS    PTSUNNY   11  -6  46 NW23G36   30.21R WCI  -9
6HR MIN TEMP:  11; 6HR MAX TEMP:  12; 6HR PCP: TRACE;

CAMP DOUGLAS   MOSUNNY   14  -2  48 NW21G30   30.22R WCI  -4
                                      6HR PCP: TRACE;

$$

WIZ011>013-019>022-031-037>040-048>050-121900-
NORTHEAST WISCONSIN

CITY           SKY/WX    TMP DP  RH WIND       PRES   REMARKS
ANTIGO         CLOUDY     8  -6  55 NW21      30.10R WCI -12
6HR MIN TEMP:   5; 6HR MAX TEMP:   8;

SHAWANO        PTSUNNY   16  -4  42 NW14G22   30.14R WCI   1
6HR MIN TEMP:  12; 6HR MAX TEMP:  16;

OCONTO         CLOUDY    15  -3  45 N12G18    30.11R WCI   2
6HR MIN TEMP:  10; 6HR MAX TEMP:  15;

STURGEON BAY   PTSUNNY   16  -2  45 NW17G25   30.09S WCI   0
6HR MIN TEMP:  10; 6HR MAX TEMP:  16;

GREEN BAY      MOSUNNY   14   0  53 NW17G28   30.12R WCI  -3
6HR MIN TEMP:  12; 6HR MAX TEMP:  15;

MANITOWOC      PTSUNNY   17   2  51 NW14      30.11R WCI   3
6HR MIN TEMP:  14; 6HR MAX TEMP:  18; 6HR PCP: TRACE;

APPLETON       MOSUNNY   14  -6  41 MISG      30.11R
CLINTONVILLE   PTSUNNY   14  -4  44 N14G25    30.14S WCI  -1
OSHKOSH        SUNNY     15  -1  49 NW21G28   30.13S WCI  -2
6HR MIN TEMP:  13; 6HR MAX TEMP:  15; 6HR PCP: TRACE;

$$

WIZ032>034-041-042-053>061-121900-
SOUTHWEST WISCONSIN

CITY           SKY/WX    TMP DP  RH WIND       PRES   REMARKS
LA CROSSE      SUNNY     15   1  53 NW21      30.31R WCI  -2
6HR MIN TEMP:  13; 6HR MAX TEMP:  15; 6HR PCP: TRACE;

SPARTA         MOSUNNY   16   1  52 NW17G24   30.28R WCI   0
6HR MIN TEMP:  12; 6HR MAX TEMP:  16;

VIROQUA        MOSUNNY   14   1  55 NW18G24   30.23R WCI  -3
6HR MIN TEMP:   7; 6HR MAX TEMP:  14;

BOSCOBEL       MOSUNNY   19   3  49 NW17      30.29R WCI   4
6HR MIN TEMP:  13; 6HR MAX TEMP:  19; 6HR PCP: TRACE;

PRAIRIE DU CHI SUNNY     17   2  53 NW17G29   30.31S WCI   1
6HR MIN TEMP:  13; 6HR MAX TEMP:  17;

PLATTEVILLE    MOSUNNY   17   7  64 NW16G24   30.24S WCI   2
6HR MIN TEMP:  13; 6HR MAX TEMP:  18;

$$

WIZ056-057-062-063-064-067-068-121900-
SOUTH CENTRAL WISCONSIN

CITY           SKY/WX    TMP DP  RH WIND       PRES   REMARKS
REEDSBURG      SUNNY     15  -1  49 NW13G23   30.21S WCI   1
6HR MIN TEMP:  12; 6HR MAX TEMP:  16;

BARABOO/DELLS  SUNNY     16  -3  43 NW17G29   30.19S WCI   0
6HR MIN TEMP:  12; 6HR MAX TEMP:  16;

LONE ROCK      MOSUNNY   18   0  45 NW13G23   30.25S WCI   5
6HR MIN TEMP:  13; 6HR MAX TEMP:  18; 6HR PCP: TRACE;

MINERAL POINT  SUNNY     19   3  49 NW17G25   30.21S WCI   4
MADISON        MOSUNNY   16   1  51 NW12G22   30.19R WCI   3
6HR MIN TEMP:  13; 6HR MAX TEMP:  17; 6HR PCP: TRACE;

MIDDLETON      MOSUNNY   19   4  51 NW17G23   30.20S WCI   4
6HR MIN TEMP:  15; 6HR MAX TEMP:  19;

WATERTOWN      PTSUNNY   17   3  55 NW17      30.16S WCI   1
6HR MIN TEMP:  14; 6HR MAX TEMP:  19;

MONROE         CLOUDY    21   7  53 NW14G24   30.18F WCI   8
JANESVILLE     MOSUNNY   21   7  53 NW21G26   30.18S WCI   6
$$

WIZ051-052-058>065-066-070>072-121900-
SOUTHEAST WISCONSIN

CITY           SKY/WX    TMP DP  RH WIND       PRES   REMARKS
MILWAUKEE      PTSUNNY   19   2  47 NW16G29   30.14S WCI   4
6HR MIN TEMP:  16; 6HR MAX TEMP:  19;

WAUKESHA       PTSUNNY   16   7  67 W20G26    30.14S WCI  -1
MILWAUKEE/TIMM PTSUNNY   18   1  49 NW21G26   30.14S WCI   1
RACINE         MOSUNNY   20   3  48 NW15G26   30.15S WCI   6
6HR MIN TEMP:  17; 6HR MAX TEMP:  20;

BURLINGTON     PTSUNNY   19   5  54 NW22G30   30.15S WCI   2
6HR MIN TEMP:  15; 6HR MAX TEMP:  19;

KENOSHA        PTSUNNY   19   6  57 NW21G28   30.14S WCI   3
6HR MIN TEMP:  17; 6HR MAX TEMP:  19;

FOND DU LAC    MOSUNNY   16   1  51 NW21G29   30.13S WCI  -1
6HR MIN TEMP:  14; 6HR MAX TEMP:  16; 6HR PCP: TRACE;

SHEBOYGAN      MOSUNNY   16   2  54 W18       30.11S WCI   0
6HR MIN TEMP:  13; 6HR MAX TEMP:  16;

WEST BEND      SUNNY     18   0  45 W20G29    30.12S WCI   1
JUNEAU         MOSUNNY   16   0  50 W14G22    30.15S WCI   1
6HR MIN TEMP:  13; 6HR MAX TEMP:  16;

$$

LSZ147-162-121900-
LAKE SUPERIOR

STATION/POSITION TIME  TEMP    WIND        PRES    WAVE
                       AIR SEA DIR/SP/G            HT/PER
                 (UTC) (F)     (DEG/KT/KT) (MB)    (FT/S)
DEVILS ISLAND    1800    0     330/ 24/ 29 1030.3R
PORT WING        1740    2     310/ 14/ 22 1029.1R
SAXON HARBOR     1720    3                 1026.8R
$$

LMZ867-665-643>646-121900-
LAKE MICHIGAN

STATION/POSITION TIME  TEMP    WIND        PRES    WAVE
                       AIR SEA DIR/SP/G            HT/PER
                 (UTC) (F)     (DEG/KT/KT) (MB)    (FT/S)
CHAMBERS ISLAND  1700   17     290/  8/ 1C1F1C2F2C3F3C4F4C5F5C6F6C7F7C8M1C9M2Ca!



USA.gov is the U.S. government's official web portal to all federal, state and local government web resources and services.